Home > Weather > Warendorf > Past weeks

Flag for Germany Past Weather in Warendorf, North Rhine-Westphalia, Germany — Yesterday and Last 2 Weeks

Now
90 °F

Passing clouds.


Feels Like: 90 °F
Forecast: 56 / 68 °F
Wind: 14 mph from Southwest

Location: Muenster / Osnabrueck

Current Time: Aug 28, 2016 at 2:27:55 PM

Latest Report: Aug 28, 2016 at 1:50 PM


Visibility: N/A

Pressure: 29.83 "Hg

Humidity: 38%

Dew Point: 61 °F

Location of WarendorfLocation

Past Weather in Warendorf — Graph

°F

Warendorf Temperature Yesterday

Maximum temperature yesterday: 84 °F (at 5:20 PM)
Minimum temperature yesterday: 63 °F (at 5:20 AM)
Average temperature yesterday: 73 °F

High & Low Weather Summary for the Past Weeks

 TemperatureHumidityPressure
High90 °F (Aug 25, 4:20 PM)100% (Aug 14, 1:20 AM)30.33 "Hg (Aug 14, 1:20 AM)
Low46 °F (Aug 17, 6:50 AM)29% (Aug 25, 5:20 PM)29.77 "Hg (Aug 19, 5:20 PM)
Average67 °F71%30.06 "Hg
* Reported Aug 13 12:20 PM — Aug 28 12:50 PM, Warendorf, Weather by CustomWeather, © 2016

Note: Actual official high and low records may vary slightly from our data, if they occured in-between our weather recording intervals... More about our weather records

Advertising

Warendorf Weather History for the Previous 24 Hours

Scroll right to see more
 ConditionsComfort  
Time TempWeatherWind HumidityBarometerVisibility
12:50 PM
Sun, Aug 28
88 °FScattered clouds.13 mph43%29.86 "HgN/A
12:20 PM86 °FScattered clouds.10 mph49%29.86 "HgN/A
11:50 AM84 °FPartly sunny.8 mph55%29.86 "HgN/A
11:20 AM82 °FPartly sunny.8 mph55%29.86 "HgN/A
10:50 AM81 °FPartly sunny.8 mph58%29.86 "HgN/A
10:20 AM79 °FPartly sunny.7 mph61%29.86 "HgN/A
9:50 AM77 °FScattered clouds.7 mph65%29.86 "HgN/A
9:20 AM75 °FSunny.6 mph69%29.89 "Hg10 mi
8:50 AM73 °FSunny.6 mph74%29.89 "Hg10 mi
8:20 AM70 °FPassing clouds.7 mph83%29.89 "HgN/A
7:50 AM70 °FPassing clouds.6 mph83%29.89 "HgN/A
7:20 AM68 °FPassing clouds.3 mph83%29.89 "HgN/A
6:50 AM68 °FClear.2 mph83%29.89 "Hg10 mi
6:20 AM68 °FClear.2 mph83%29.89 "Hg10 mi
5:50 AM68 °FPassing clouds.5 mph83%29.89 "HgN/A
5:20 AM68 °FPassing clouds.5 mph88%29.92 "HgN/A
4:50 AM70 °FPassing clouds.3 mph83%29.92 "HgN/A
4:20 AM70 °FPartly cloudy.5 mph83%29.92 "HgN/A
3:50 AM70 °FPartly cloudy.3 mph83%29.89 "HgN/A
3:20 AM72 °FPartly cloudy.8 mph73%29.92 "HgN/A
2:50 AM70 °FPassing clouds.2 mph83%29.92 "HgN/A
2:20 AM75 °FPassing clouds.5 mph65%29.92 "HgN/A
1:50 AM75 °FPassing clouds.8 mph65%29.95 "HgN/A
1:20 AM72 °FPassing clouds.5 mph69%29.89 "HgN/A
12:50 AM75 °FPassing clouds.5 mph57%29.92 "HgN/A
12:20 AM77 °FThundershowers. Passing clouds.15 mph51%29.92 "HgN/A
11:50 PM
Sat, Aug 27
73 °FThundershowers. Passing clouds.8 mph78%29.95 "HgN/A
11:20 PM73 °FThunderstorms. Passing clouds.13 mph74%29.95 "HgN/A
10:50 PM73 °FPartly cloudy.5 mph78%29.92 "HgN/A
10:20 PM75 °FPartly cloudy.2 mph69%29.95 "HgN/A
9:50 PM77 °FPartly cloudy.3 mph65%29.95 "HgN/A
9:20 PM77 °FPassing clouds.3 mph65%29.98 "HgN/A
8:50 PM77 °FPassing clouds.5 mph65%29.98 "HgN/A
8:20 PM79 °FBroken clouds.3 mph61%29.98 "HgN/A
7:50 PM81 °FBroken clouds.3 mph62%29.98 "HgN/A
7:20 PM81 °FPartly sunny.5 mph62%29.98 "HgN/A
6:50 PM82 °FPartly sunny.5 mph58%29.98 "HgN/A
6:20 PM82 °FPartly sunny.6 mph55%30.01 "HgN/A
5:50 PM84 °FScattered clouds.6 mph55%30.01 "HgN/A
5:20 PM84 °FScattered clouds.9 mph55%30.01 "HgN/A
4:50 PM82 °FScattered clouds.12 mph55%30.04 "HgN/A
4:20 PM82 °FPassing clouds.9 mph58%30.04 "HgN/A
3:50 PM82 °FPassing clouds.7 mph55%30.04 "HgN/A
3:20 PM82 °FPassing clouds.8 mph55%30.07 "HgN/A
2:50 PM81 °FPassing clouds.7 mph58%30.07 "HgN/A
2:20 PM81 °FPassing clouds.9 mph58%30.07 "HgN/A
Weather by CustomWeather, © 2016

See weather overviewHow to use our weather pages